Terminal Aerodrome Forecast
Issued by NWS

Home | Current Version | Previous Version | Text Only | Print | Product List | Glossary On
Versions: 1 2 3 4 5 6 7 8 9 10 11 12 13 14 15 16 17 18 19 20 21 22 23 24 25
000
FTUS43 KPAH 150935 AAA
TAFCGI
TAF AMD
KCGI 150935Z 1510/1606 03005KT P6SM BKN007 OVC015
     FM151400 05005KT 4SM -SHRA BR OVC003
     FM151900 06006KT P6SM SCT003 OVC008=

USA.gov is the U.S. government's official web portal to all federal, state and local government web resources and services.